Location: Radomski Observatory
(40.2854°N, 79.5145°W)
Time: 05:23:58
(UTC-04:00)

Cosmos 1072 Rocket - Visible Passes

Search period start: 26 April 2018 00:00
Search period end: 06 May 2018 00:00
Orbit: 949 x 1008 km, 82.9° (Epoch: 25 April)

Date Brightness Start Highest point End Pass type
(mag) Time Alt. Az. Time Alt. Az. Time Alt. Az.
26 Apr 6.8 00:05:32 12° ENE 00:05:32 12° ENE 00:06:36 10° NE visible
26 Apr 5.1 01:50:15 54° N 01:50:15 54° N 01:55:05 10° N visible
26 Apr 6.5 03:34:59 14° WNW 03:34:59 14° WNW 03:38:13 10° NW visible
27 Apr 6.3 00:31:38 22° ENE 00:31:38 22° ENE 00:34:59 10° NNE visible
27 Apr 5.3 02:16:21 45° NW 02:16:21 45° NW 02:21:18 10° N visible
28 Apr 5.6 00:57:44 37° NE 00:57:44 37° NE 01:02:05 10° NNE visible
28 Apr 5.9 02:42:27 28° WNW 02:42:27 28° WNW 02:47:08 10° NNW visible
28 Apr 6.8 23:39:05 10° ENE 23:39:05 10° ENE 23:39:20 10° ENE visible
29 Apr 5.1 01:23:49 55° NNE 01:23:49 55° NNE 01:28:43 10° N visible
29 Apr 6.4 03:08:32 16° WNW 03:08:32 16° WNW 03:12:14 10° NNW visible
30 Apr 6.3 00:05:10 20° ENE 00:05:10 20° ENE 00:08:25 10° NE visible
30 Apr 5.2 01:49:53 50° NW 01:49:53 50° NW 01:55:00 10° N visible
01 May 5.6 00:31:13 35° ENE 00:31:13 35° ENE 00:35:39 10° NNE visible
01 May 5.7 02:15:56 31° WNW 02:15:56 31° WNW 02:20:54 10° NNW visible
02 May 5.0 00:57:16 56° NNE 00:57:16 56° NNE 01:02:20 10° N visible
02 May 6.4 02:41:59 18° WNW 02:42:02 18° WNW 02:46:10 10° NNW visible
02 May 6.3 23:38:35 19° ENE 23:38:35 19° ENE 23:41:49 10° NE visible
03 May 5.0 01:23:18 56° NW 01:23:18 56° NW 01:28:40 10° N visible
04 May 5.6 00:04:37 33° ENE 00:04:37 33° ENE 00:09:11 10° NNE visible
04 May 5.6 01:49:20 35° WNW 01:49:20 35° WNW 01:54:39 10° N visible
05 May 4.9 00:30:37 57° NE 00:30:37 57° NE 00:35:57 10° NNE visible
05 May 6.3 02:15:20 20° WNW 02:15:35 20° WNW 02:20:05 10° NNW visible
05 May 6.3 23:11:54 17° ENE 23:11:54 17° ENE 23:15:10 10° NE visible
